Regional Weather Roundup
Issued by NWS Albany, NY

Home | Current Version | Previous Version | Text Only | Print | Product List | Glossary On
Versions: 1 2 3 4 5 6 7 8 9 10 11 12 13 14 15 16 17 18 19 20 21 22 23 24 25 26 27
000
ASUS41 KALY 051110
RWRALY

NEW YORK STATE HOURLY WEATHER ROUNDUP
NATIONAL WEATHER SERVICE ALBANY NY
600 AM EST MON DEC 05 2016

NOTE: "FAIR" INDICATES FEW OR NO CLOUDS BELOW 12,000 FEET WITH NO
SIGNIFICANT WEATHER AND/OR NO OBSTRUCTIONS TO VISIBILITY.

NYZ032-033-038>043-046>054-057>066-NYZ062>081-082-084-051200-
EAST


CITY           SKY/WX    TMP DP  RH WIND       PRES   REMARKS
ALBANY         LGT SNOW  29  25  85 CALM      30.00F VSB 1
GLENS FALLS    LGT SNOW  27  23  85 NE3       30.00F VSB 1
POUGHKEEPSIE   LGT SNOW  30  29  96 CALM      30.01S FOG
NEWBURGH       LGT SNOW  32  32 100 CALM      30.01F FOG
MONTGOMERY     LGT SNOW  30  29  96 CALM      29.99F FOG
WHITE PLAINS   LGT RAIN  37  35  92 S5        29.99F FOG     WCI  33
ISLIP          LGT RAIN  40  37  89 SE6       30.02F
NEW YORK CITY  LGT RAIN  40  36  86 SW6       30.02F FOG
CENTRAL PARK   LGT RAIN  39  36  89 CALM      30.04S FOG
$$

NYZ005>009-017-018-044>046-055-056-051200-
CENTRAL


CITY           SKY/WX    TMP DP  RH WIND       PRES   REMARKS
FULTON         LGT SNOW  32  31  96 SE8       29.82F FOG     WCI  25
SYRACUSE       FLURRIES  31  30  96 NE7       29.84F WCI  24
ROME           LGT SNOW  28  28 100 E6        29.90F VSB 3/4 WCI  22
ELMIRA         CLOUDY    36  31  82 CALM      29.85S
BINGHAMTON     CLOUDY    30  29  96 S10       29.84S FOG     WCI  21
MONTICELLO     CLOUDY    28  28 100 E5        29.94F WCI  23
$$

NYZ026>034-041>043-087-051200-
NORTH


CITY           SKY/WX    TMP DP  RH WIND       PRES   REMARKS
WATERTOWN      LGT SNOW  34  30  85 S6        29.82F FOG     WCI  29
FORT DRUM      NOT AVBL
OGDENSBURG     LGT SNOW  28  27  95 E7        29.87F WCI  21
MASSENA        SNOW      27  24  89 NE12      29.93F VSB 1/2 WCI  17
SARANAC LAKE   LGT SNOW  22  19  89 E5        29.85F FOG     WCI  16
PLATTSBURGH    SNOW      28  26  92 S10       29.99S VSB 1/2 WCI  19
$$

NYZ001>004-010>016-019>021-085-051200-
WEST


CITY           SKY/WX    TMP DP  RH WIND       PRES   REMARKS
NIAGARA FALLS  CLOUDY    39  34  82 W17       29.79R WCI  30
BUFFALO        FLURRIES  40  35  83 W17G24    29.79R WCI  31
DUNKIRK        CLOUDY    41  36  82 W13G29    29.84R
JAMESTOWN      CLOUDY    34  30  86 SW15G24   29.82R WCI  24
WELLSVILLE     CLOUDY    35  31  85 SW12      29.81R WCI  27
ROCHESTER      FLURRIES  35  33  92 SW10      29.79S WCI  27
PENN YAN       CLOUDY    36  30  79 S16G25    29.82R WCI  26
$$

             KEY
       WCI = WIND CHILL INDEX
       VSB = VISIBILITY
       HX  = HEAT INDEX
$$




USA.gov is the U.S. government's official web portal to all federal, state and local government web resources and services.